Location: Fort Wayne
(41.1310°N, 85.1290°W)
Time: 02:27:43
(UTC-04:00)

ISS - Visible Passes

Search period start: 05 August 2015 00:00
Search period end: 15 August 2015 00:00
Orbit: 401 x 403 km, 51.6° (Epoch: 04 August)

Date Brightness Start Highest point End Pass type
(mag) Time Alt. Az. Time Alt. Az. Time Alt. Az.
05 Aug -0.2 00:21:11 10° NNW 00:22:51 13° N 00:23:05 13° N visible
05 Aug -0.9 21:49:26 10° W 21:52:12 24° NNW 21:54:57 10° NE visible
05 Aug -0.2 23:27:50 10° NNW 23:29:29 13° N 23:31:08 10° NNE visible
06 Aug -0.3 22:34:14 10° NW 22:36:07 14° N 22:38:00 10° NNE visible
07 Aug -0.3 00:11:30 10° NNW 00:13:00 15° N 00:13:00 15° N visible
07 Aug -0.5 21:40:30 10° WNW 21:42:46 17° NNW 21:45:01 10° NNE visible
07 Aug -0.4 23:18:26 10° NNW 23:20:10 14° N 23:21:40 11° NE visible
08 Aug -0.4 22:25:08 10° NNW 22:26:46 13° N 22:28:24 10° NNE visible
09 Aug -0.4 00:01:34 10° NNW 00:02:54 17° N 00:02:54 17° N visible
09 Aug -0.5 21:31:32 10° NW 21:33:21 14° N 21:35:09 10° NNE visible
09 Aug -0.8 23:08:37 10° NNW 23:10:46 16° NNE 23:11:33 15° NNE visible
10 Aug -0.5 22:15:34 10° NNW 22:17:22 14° N 22:19:10 10° NE visible
10 Aug -0.5 23:51:33 10° NW 23:52:47 19° NNW 23:52:47 19° NNW visible
11 Aug -0.5 21:22:18 10° NNW 21:23:56 13° N 21:25:34 10° NNE visible
11 Aug -1.3 22:58:36 10° NNW 23:01:15 22° NNE 23:01:28 22° NNE visible
12 Aug -0.9 22:05:38 10° NNW 22:07:53 17° NNE 22:10:08 10° ENE visible
12 Aug -0.6 23:41:33 10° NW 23:42:43 20° NW 23:42:43 20° NW visible
13 Aug -0.7 21:12:35 10° NNW 21:14:27 14° N 21:16:20 10° NE visible
13 Aug -2.2 22:48:31 10° NW 22:51:25 36° NNE 22:51:25 36° NNE visible
14 Aug -1.5 21:55:31 10° NW 21:58:16 24° NNE 22:00:09 15° ENE visible
14 Aug -0.7 23:31:41 10° WNW 23:32:44 19° WNW 23:32:44 19° WNW visible
